User: anonymous   Login
Location: Unspecified
(41.5000°N, 0.0000°E)
Time: 03:36:02
(UTC+00:00)
Language:

Explorer 7 - Orbit

View from above orbital plane
View from above orbital plane
View from above satellite
View from above satellite

Ground track
Ground track

The orbit data is extracted from the following two-line orbital elements,

1    22U 59009A   19166.20085947 -.00000116  00000-0  14474-4 0  9998
2    22  50.2861  29.5480 0140139 292.1177  66.4943 14.94874300170238
Epoch (UTC): 15 June 2019 04:49:14
Eccentricity: 0.0140139
inclination: 50.2861°
perigee height: 485 km
apogee height: 680 km
right ascension of ascending node: 29.5480°
argument of perigee: 292.1177°
revolutions per day: 14.94874300
mean anomaly at epoch: 66.4943°
orbit number at epoch: 17023

The dashed part of the orbit path shows where the satellite is in the earth's shadow,  

DLR